Regional Weather Roundup
Issued by NWS Boston, MA

Home | Current Version | Previous Version | Text Only | Print | Product List | Glossary On
Versions: 1 2 3 4 5 6 7 8 9 10 11 12 13 14 15 16 17 18 19 20 21 22 23 24 25 26 27 28 29 30 31 32 33 34 35 36 37 38 39 40 41 42 43 44 45 46 47 48 49 50
000
ASUS41 KBOX 310410
RWRBOX

REGIONAL WEATHER ROUNDUP
NATIONAL WEATHER SERVICE TAUNTON MA
1200 AM EDT SUN JUL 31 2016

NOTE:  "FAIR" INDICATES FEW OR NO CLOUDS BELOW 12,000 FEET WITH NO
SIGNIFICANT WEATHER AND/OR OBSTRUCTIONS TO VISIBILITY.

MAZALL-310500-
EASTERN MASSACHUSETTS

CITY           SKY/WX    TMP DP  RH WIND       PRES   REMARKS
BOSTON         CLOUDY    71  69  93 SE6       30.06S
BEVERLY        CLOUDY    72  69  90 SE8       30.05F
LAWRENCE       CLOUDY    72  64  76 CALM      30.08S
BEDFORD        CLOUDY    72  64  76 SE3       30.04F
BLUE HILL        N/A     70  69  97 S10       30.07S
NORWOOD        MOCLDY    73  70  90 S5        30.06R
MARSHFIELD     CLOUDY    73  70  88 SW5       30.06S
PLYMOUTH       CLOUDY    71  69  93 VRB5      30.08S
TAUNTON        MOCLDY    72  69  90 S3        30.06S
NEW BEDFORD    CLOUDY    73  70  90 S5        30.07S
$$

MAZALL-310500-
CAPE COD AND THE ISLANDS

CITY           SKY/WX    TMP DP  RH WIND       PRES   REMARKS
FALMOUTH       NOT AVBL
HYANNIS        CLOUDY    71  68  90 SW5       30.07S
CHATHAM        CLOUDY    71  68  90 CALM      30.09F
PROVINCETOWN   CLOUDY    72  70  93 S7        30.08F
NANTUCKET      FOG       66  65  96 SE3       30.09S VSB 1
MARTHAS VNYRD  CLOUDY    69  67  93 CALM      30.08S
$$

MAZALL-310500-
CENTRAL AND WESTERN MASSACHUSETTS

CITY           SKY/WX    TMP DP  RH WIND       PRES   REMARKS
WORCESTER      CLOUDY    69  66  90 W8        30.09S
FITCHBURG      MOCLDY    75  65  70 NW5       30.07S
ORANGE         MOCLDY    70  68  93 CALM      30.07F
SPRINGFIELD    CLOUDY    70  69  96 MISG      30.04F
WESTFIELD      CLOUDY    69  68  96 S3        30.06S
NORTH ADAMS    LGT RAIN  66  64  93 CALM      30.09S
PITTSFIELD     LGT RAIN  66  63  90 CALM      30.09S
$$

RIZALL-310500-
RHODE ISLAND

CITY           SKY/WX    TMP DP  RH WIND       PRES   REMARKS
PROVIDENCE     LGT RAIN  74  69  85 SW6       30.07S
NEWPORT        CLOUDY    73  71  93 S5        30.07S
BLOCK ISLAND   CLOUDY    73  71  93 S7        30.07F
SMITHFIELD     CLOUDY    72  68  88 S3        30.08S
WESTERLY       CLOUDY    74  69  85 CALM      30.08R
$$

CTZALL-310500-
CONNECTICUT

CITY           SKY/WX    TMP DP  RH WIND       PRES   REMARKS
BRADLEY INTL   LGT RAIN  71  69  93 S5        30.06S
HARTFORD       CLOUDY    74  71  91 CALM      30.05S
BRIDGEPORT     LGT RAIN  76  73  91 CALM      30.04F
DANBURY        CLOUDY    71  69  93 NE3       30.07S
GROTON         CLOUDY    74  70  87 CALM      30.06S
NEW HAVEN      CLOUDY    75  73  93 CALM      30.06S
CHESTER        CLOUDY    73  72  94 CALM      30.07F FOG
MERIDEN        CLOUDY    74  70  87 CALM      30.06S
WILLIMANTIC    MOCLDY    74  71  91 CALM      30.07S
OXFORD           N/A     72  66  83 CALM      30.09F
$$

MEZ002-015-021-024-NHZ003-005-008-011-012-014-VTZ005-008-310500-
NORTHERN NEW ENGLAND

CITY           SKY/WX    TMP DP  RH WIND       PRES   REMARKS
PORTLAND ME    CLOUDY    70  56  61 CALM      30.08R
BANGOR ME      CLOUDY    69  54  58 NW5       30.08R
CONCORD NH     CLOUDY    71  58  63 CALM      30.07S
MANCHESTER NH  CLOUDY    76  57  51 E3        30.05S
NASHUA NH      MOCLDY    74  61  63 E3        30.07R
PORTSMOUTH NH  CLOUDY    69  60  73 NW3       30.06R
JAFFREY NH     CLOUDY    71  62  73 CALM      30.11S
KEENE NH       CLOUDY    69  65  86 CALM      30.08S
BURLINGTON VT  FAIR      64  56  75 CALM      30.10S
MT. WASHINGTON MOCLDY    48  45  87 SW13        N/A
$$

NYZ052-076-310500-
EASTERN NEW YORK

CITY           SKY/WX    TMP DP  RH WIND       PRES   REMARKS
ALBANY         LGT RAIN  69  64  84 CALM      30.08R
NEW YORK CITY  CLOUDY    77  73  87 SE7       30.03S
$$

ANZALL-310500-
MARINE OBSERVATIONS

STATION/POSITION TIME  TEMP    WIND        PRES    VSBY  WAVE
                       AIR SEA DIR/SP/G                  HT/PER
                 (UTC) (F)     (DEG/KT/KT) (MB)    (MI)  (FT/S)
BOSTON BUOY      0350   72 72  130/  8/ 10 1017.7R         1/ 7
BUZZARDS BAY     0300   72     210/  6/  6 1018.7F
NANTUCKET SOUND  0350   71 75  210/  4/  6 1018.4S         1
MASS BAY-STELLWA 0304   71 69  140/ 10/ 12 1017.7S  1 7/8  1/ 8
ISLE OF SHOALS   0300   71     160/ 11/ 11 1017.8F
S OF BLOCK IS    0325      72                N/A           2/ 8
$$

......................KEY.........................
  SKY/WX - SKY CONDITION/PRESENT WEATHER
  TMP    - TEMPERATURE IN FAHRENHEIT
  DWPT   - DEWPOINT IN FAHRENHEIT
  RH     - RELATIVE HUMIDITY IN PERCENT
  WIND   - DIRECTION AND SPEED IN MPH
  PRES   - MEAN SEA LEVEL PRESSURE IN INCHES OF HG
  WCI    - WIND CHILL INDEX
  VSB    - VISIBILITY IN MILES
  HX     - HEAT INDEX
  TC     - TEMPERATURE IN CELSIUS
  VRB    - VARIABLE WIND DIRECTION
  N/A    - NOT AVAILABLE



USA.gov is the U.S. government's official web portal to all federal, state and local government web resources and services.